Weather History for KCCY - July, 2013

Change the Weather History Date:

Wednesday, July 10, 2013

  Actual Average Record
Temperature  
Mean Temperature 72 °F -  
Max Temperature 78 °F 84 °F - (-1)
Min Temperature 62 °F 61 °F - (-1)
Cooling Degree Days 7    
Growing Degree Days 22 (Base 50)    
Moisture  
Dew Point 58 °F    
Average Humidity 64    
Maximum Humidity 88    
Minimum Humidity 42    
Precipitation  
Precipitation 0.00 in - - ()
Sea Level Pressure  
Sea Level Pressure 30.02 in    
Wind  
Wind Speed 11 mph (NNW)    
Max Wind Speed 21 mph    
Max Gust Speed 28 mph    
Visibility 10 miles    
Events      
Averages and records for this station are not official NWS values.
T = Trace of Precipitation, MM = Missing Value Source: NWS Daily Summary

Daily Weather History Graph

Daily Weather History Graph

Search for Another Location

Airport or City:

Trip Planner

Search our weather history database for the weather conditions in past years. The results will help you decide how hot, cold, wet, or windy it might be!

Date:

Astronomy

Jul. 10, 2013 Rise Set
Actual Time 5:40 AM CDT 8:50 PM CDT
Civil Twilight 5:06 AM CDT 9:25 PM CDT
Nautical Twilight 4:21 AM CDT 10:09 PM CDT
Astronomical Twilight 3:28 AM CDT 11:02 PM CDT
Moon 8:07 AM CDT (7/10) 9:54 PM CDT (7/10)
Length of Visible Light 16h 18m
Length of Day
15h 09m
Waxing Crescent, 5% of the Moon is Illuminated
Jul 10
Waxing Crescent
Jul 15
First Quarter
Jul 22
Full
Jul 29
Last Quarter
Aug 6
New

Hourly Weather History & Observations

Time (CDT) Temp. Dew Point Humidity Pressure Visibility Wind Dir Wind Speed Gust Speed Precip Events Conditions
12:15 AM 71.6 °F 68.0 °F 88% 29.93 in 10.0 mi WNW 6.9 mph - N/A   Clear
12:35 AM 73.4 °F 68.0 °F 83% 29.94 in 10.0 mi NW 9.2 mph - N/A   Scattered Clouds
12:55 AM 73.4 °F 68.0 °F 83% 29.94 in 10.0 mi NW 9.2 mph - N/A   Scattered Clouds
1:15 AM 73.4 °F 66.2 °F 78% 29.94 in 10.0 mi NW 9.2 mph - N/A   Partly Cloudy
1:35 AM 71.6 °F 66.2 °F 83% 29.95 in 10.0 mi NW 8.1 mph - N/A   Clear
1:55 AM 73.4 °F 66.2 °F 78% 29.95 in 10.0 mi NW 8.1 mph - N/A   Mostly Cloudy
2:15 AM 69.8 °F 66.2 °F 88% 29.95 in 10.0 mi NW 4.6 mph - N/A   Scattered Clouds
2:55 AM 69.8 °F 66.2 °F 88% 29.95 in 10.0 mi NNW 10.4 mph - N/A   Clear
3:15 AM 69.8 °F 64.4 °F 83% 29.95 in 10.0 mi NW 12.7 mph - N/A   Clear
3:35 AM 69.8 °F 64.4 °F 83% 29.96 in 10.0 mi NW 11.5 mph 17.3 mph N/A   Clear
3:55 AM 69.8 °F 64.4 °F 83% 29.97 in 10.0 mi NNW 11.5 mph - N/A   Clear
4:15 AM 68.0 °F 64.4 °F 88% 29.97 in 10.0 mi NNW 11.5 mph - N/A   Clear
4:35 AM 68.0 °F 64.4 °F 88% 29.98 in 10.0 mi NNW 10.4 mph - N/A   Clear
4:55 AM 68.0 °F 64.4 °F 88% 29.99 in 10.0 mi NNW 12.7 mph - N/A   Clear
5:15 AM 66.2 °F 62.6 °F 88% 29.99 in 10.0 mi NNW 15.0 mph - N/A   Clear
5:35 AM 66.2 °F 62.6 °F 88% 29.99 in 10.0 mi NNW 12.7 mph 19.6 mph N/A   Clear
5:55 AM 66.2 °F 62.6 °F 88% 30.00 in 10.0 mi NNW 16.1 mph - N/A   Clear
6:15 AM 66.2 °F 62.6 °F 88% 30.00 in 10.0 mi NNW 18.4 mph 27.6 mph N/A   Clear
6:35 AM 66.2 °F 62.6 °F 88% 30.01 in 10.0 mi NNW 16.1 mph 23.0 mph N/A   Clear
6:55 AM 66.2 °F 62.6 °F 88% 30.01 in 10.0 mi NNW 13.8 mph 20.7 mph N/A   Mostly Cloudy
7:15 AM 66.2 °F 62.6 °F 88% 30.01 in 10.0 mi NNW 17.3 mph 25.3 mph N/A   Overcast
7:35 AM 66.2 °F 60.8 °F 83% 30.01 in 10.0 mi NNW 17.3 mph 24.2 mph N/A   Mostly Cloudy
7:55 AM 66.2 °F 60.8 °F 83% 30.02 in 10.0 mi NNW 16.1 mph 23.0 mph N/A   Scattered Clouds
8:15 AM 68.0 °F 59.0 °F 73% 30.03 in 10.0 mi North 20.7 mph - N/A   Mostly Cloudy
8:35 AM 68.0 °F 57.2 °F 68% 30.04 in 10.0 mi North 20.7 mph - N/A   Partly Cloudy
8:55 AM 68.0 °F 57.2 °F 68% 30.05 in 10.0 mi North 15.0 mph 20.7 mph N/A   Clear
9:15 AM 68.0 °F 55.4 °F 64% 30.05 in 10.0 mi North 16.1 mph 21.9 mph N/A   Clear
9:35 AM 69.8 °F 57.2 °F 64% 30.05 in 10.0 mi North 15.0 mph 21.9 mph N/A   Clear
9:55 AM 69.8 °F 57.2 °F 64% 30.05 in 10.0 mi North 15.0 mph 23.0 mph N/A   Clear
10:15 AM 69.8 °F 57.2 °F 64% 30.05 in 10.0 mi North 13.8 mph - N/A   Clear
10:35 AM 71.6 °F 55.4 °F 57% 30.05 in 10.0 mi North 16.1 mph - N/A   Clear
10:55 AM 71.6 °F 55.4 °F 57% 30.05 in 10.0 mi North 19.6 mph - N/A   Clear
11:15 AM 71.6 °F 55.4 °F 57% 30.05 in 10.0 mi North 15.0 mph - N/A   Clear
11:35 AM 73.4 °F 55.4 °F 53% 30.05 in 10.0 mi North 18.4 mph - N/A   Clear
11:55 AM 73.4 °F 53.6 °F 50% 30.05 in 10.0 mi North 17.3 mph - N/A   Clear
12:15 PM 75.2 °F 55.4 °F 50% 30.05 in 10.0 mi North 15.0 mph 21.9 mph N/A   Clear
12:35 PM 75.2 °F 53.6 °F 47% 30.05 in 10.0 mi North 19.6 mph 27.6 mph N/A   Clear
12:55 PM 75.2 °F 53.6 °F 47% 30.05 in 10.0 mi North 11.5 mph 20.7 mph N/A   Clear
1:15 PM 75.2 °F 55.4 °F 50% 30.06 in 10.0 mi NNW 11.5 mph 19.6 mph N/A   Clear
1:35 PM 77.0 °F 55.4 °F 47% 30.06 in 10.0 mi North 13.8 mph - N/A   Clear
1:55 PM 77.0 °F 55.4 °F 47% 30.06 in 10.0 mi North 15.0 mph 23.0 mph N/A   Clear
2:15 PM 77.0 °F 55.4 °F 47% 30.06 in 10.0 mi NNW 13.8 mph - N/A   Clear
2:35 PM 77.0 °F 55.4 °F 47% 30.06 in 10.0 mi NNW 12.7 mph - N/A   Clear
2:55 PM 77.0 °F 55.4 °F 47% 30.06 in 10.0 mi NNW 10.4 mph 18.4 mph N/A   Clear
3:15 PM 77.0 °F 55.4 °F 47% 30.06 in 9.0 mi NW 9.2 mph 20.7 mph N/A   Clear
3:35 PM 78.8 °F 55.4 °F 44% 30.06 in 10.0 mi NNW 11.5 mph 18.4 mph N/A   Clear
3:55 PM 78.8 °F 55.4 °F 44% 30.05 in 10.0 mi NW 12.7 mph 18.4 mph N/A   Clear
4:15 PM 78.8 °F 53.6 °F 42% 30.05 in 10.0 mi NNW 12.7 mph 18.4 mph N/A   Clear
4:35 PM 78.8 °F 55.4 °F 44% 30.05 in 10.0 mi NW 12.7 mph - N/A   Clear
4:55 PM 78.8 °F 55.4 °F 44% 30.04 in 9.0 mi NW 6.9 mph 18.4 mph N/A   Partly Cloudy
5:15 PM 78.8 °F 55.4 °F 44% 30.04 in - WNW 13.8 mph - N/A   Clear
5:35 PM 78.8 °F 55.4 °F 44% 30.03 in 10.0 mi NNW 11.5 mph - N/A   Clear
5:55 PM 78.8 °F 55.4 °F 44% 30.03 in 10.0 mi NNW 11.5 mph - N/A   Clear
6:15 PM 78.8 °F 55.4 °F 44% 30.03 in 10.0 mi NNW 10.4 mph - N/A   Partly Cloudy
6:35 PM 78.8 °F 55.4 °F 44% 30.03 in 10.0 mi NNW 9.2 mph - N/A   Clear
6:55 PM 77.0 °F 55.4 °F 47% 30.03 in 10.0 mi NW 10.4 mph - N/A   Clear
7:15 PM 77.0 °F 53.6 °F 44% 30.03 in 10.0 mi NNW 9.2 mph - N/A   Clear
7:35 PM 77.0 °F 55.4 °F 47% 30.02 in 10.0 mi NNW 8.1 mph 13.8 mph N/A   Clear
7:55 PM 75.2 °F 57.2 °F 53% 30.02 in 9.0 mi NNW 5.8 mph - N/A   Clear
8:15 PM 73.4 °F 57.2 °F 57% 30.02 in 10.0 mi NNW 6.9 mph - N/A   Clear
8:35 PM 71.6 °F 57.2 °F 60% 30.02 in 9.0 mi North 8.1 mph - N/A   Clear
8:55 PM 69.8 °F 55.4 °F 60% 30.02 in 10.0 mi North 6.9 mph - N/A   Clear
9:15 PM 69.8 °F 55.4 °F 60% 30.03 in 10.0 mi North 8.1 mph - N/A   Clear
9:35 PM 69.8 °F 55.4 °F 60% 30.03 in 10.0 mi North 8.1 mph - N/A   Clear
9:55 PM 69.8 °F 53.6 °F 56% 30.04 in 10.0 mi North 6.9 mph - N/A   Clear
10:15 PM 68.0 °F 55.4 °F 64% 30.05 in 10.0 mi North 6.9 mph - N/A   Clear
10:35 PM 66.2 °F 55.4 °F 68% 30.05 in 10.0 mi North 5.8 mph - N/A   Clear
10:55 PM 66.2 °F 55.4 °F 68% 30.06 in 10.0 mi North 3.5 mph - N/A   Clear
11:15 PM 66.2 °F 55.4 °F 68% 30.07 in 10.0 mi Calm Calm - N/A   Clear
11:35 PM 66.2 °F 55.4 °F 68% 30.08 in 10.0 mi Calm Calm - N/A   Clear
11:55 PM 62.6 °F 57.2 °F 82% 30.08 in 10.0 mi Calm Calm - N/A   Clear